[[{"header":{"parameterUnit":"m.s-1","parameterCategory":1,"la1":30.2991,"la2":30.254,"lo1":-89.0895,"lo2":-89.0444,"dy":0.0017,"dx":0.0017,"nx":28,"ny":28,"refTime":"2025-04-21T21:00:00:Z","depth":0,"parameterNumber":2,"parameterNumberName":"U-component_of_WINDS"},"data":[0,0,0,0,0,0,0,0,0,0,0,0,0,0,0,0,0,0,0,0,0,0,0,0,0,0,0,0,0,0,0,0,0,0,0,0,0,0,0,0,0,0,0,0,0,0,0,0,0,0,0,0,0,0,0,0,0,0,-3.0916,-3.0917,0,-3.0975,-3.0976,-3.0977,-3.0986,-3.0985,-3.0985,-3.0984,-3.1043,-3.1045,-3.1047,0,0,0,0,0,0,0,0,0,0,0,0,0,-3.0812,-3.0814,-3.0916,-3.0917,-3.0918,-3.0975,-3.0976,-3.0977,-3.0986,-3.0985,-3.0985,-3.0984,-3.1043,-3.1045,-3.1048,0,0,0,0,0,0,0,0,0,0,0,0,0,-3.0863,-3.0814,-3.0916,-3.0929,-3.0931,-3.0975,-3.0976,-3.0977,-3.0986,-3.0985,-3.0984,-3.0984,-3.1042,-3.1045,-3.1048,-3.1083,0,0,-3.1057,-3.1059,0,0,0,0,0,0,0,0,-3.086,-3.0866,-3.0927,-3.0928,-3.093,-3.0972,-3.0961,-3.1012,-3.0986,-3.0965,-3.0984,-3.0983,-3.102,-3.1025,-3.1038,-3.1086,-3.1088,-3.1058,-3.106,-3.1061,-3.1062,0,0,0,0,0,0,0,-3.0856,-3.0864,-3.094,-3.0927,-3.093,-3.0932,-3.0939,-3.0971,-3.0996,-3.0967,-3.0968,-3.0975,-3.1021,-3.1035,-3.1039,-3.1089,-3.1058,-3.106,-3.1062,-3.1063,-3.117,-3.1171,0,0,0,0,0,0,-3.085,-3.0861,-3.0938,-3.0941,-3.0892,-3.0935,-3.0942,-3.096,-3.0996,-3.1001,-3.0975,-3.0975,-3.103,-3.1036,-3.1041,-3.1085,-3.1061,-3.1064,-3.1066,-3.1169,-3.117,-3.1171,0,0,0,0,0,0,-3.0848,-3.0857,-3.0935,-3.0901,-3.0912,-3.0937,-3.0957,-3.0961,-3.0975,-3.1002,-3.1007,-3.0984,-3.103,-3.1037,-3.1073,-3.1087,-3.1065,-3.1068,-3.1168,-3.1169,-3.117,-3.1172,0,0,0,0,0,0,-3.0845,-3.0856,-3.0869,-3.0902,-3.0913,-3.0965,-3.0958,-3.0963,-3.098,-3.098,-3.1012,-3.1017,-3.103,-3.1068,-3.1076,-3.1091,-3.107,-3.1166,-3.1168,-3.117,-3.117,-3.1173,-3.1175,0,0,0,0,0,-3.0841,-3.0867,-3.087,-3.0879,-3.093,-3.0966,-3.0973,-3.0988,-3.0981,-3.0995,-3.1013,-3.1016,-3.1085,-3.1072,-3.1081,-3.1097,-3.1165,-3.1168,-3.117,-3.1169,-3.1172,-3.1175,0,0,0,0,0,0,-3.0834,-3.0871,-3.0875,-3.0912,-3.0936,-3.0968,-3.0985,-3.099,-3.1016,-3.1015,-3.1032,-3.1039,-3.1074,-3.1089,-3.1074,-3.1133,-3.1125,-3.1129,-3.1121,-3.1125,-3.1127,-3.1122,-3.1073,0,0,0,0,0,-3.0838,-3.0864,-3.0894,-3.0924,-3.0936,-3.0959,-3.0975,-3.0984,-3.101,-3.102,-3.104,-3.1065,-3.1092,-3.1109,-3.1136,-3.1174,-3.1181,-3.1189,-3.1192,-3.1193,-3.1196,-3.1218,-3.1222,-3.1178,-3.1178,-3.1178,0,0,-3.0843,-3.0867,-3.0882,-3.0923,-3.0943,-3.097,-3.0967,-3.0995,-3.1015,-3.1024,-3.1059,-3.1075,-3.1104,-3.1141,-3.1158,-3.1154,-3.121,-3.1196,-3.1197,-3.1199,-3.122,-3.1225,-3.1228,-3.1179,-3.1179,-3.1179,0,0,-3.0868,-3.0888,-3.0915,-3.0936,-3.0966,-3.0982,-3.0988,-3.102,-3.1031,-3.1067,-3.1074,-3.1099,-3.1145,-3.1166,-3.1182,-3.1217,-3.122,-3.1226,-3.1237,-3.1258,-3.1261,-3.1265,-3.1277,-3.1281,-3.1229,-3.1229,-3.1229,0,-3.0871,-3.0912,-3.0929,-3.0957,-3.0975,-3.0986,-3.1014,-3.1033,-3.107,-3.1082,-3.1078,-3.1138,-3.1158,-3.12,-3.1209,-3.1222,-3.123,-3.1221,-3.126,-3.1263,-3.1266,-3.1278,-3.1282,-3.1229,-3.1229,-3.1229,-3.1229,0,-3.0914,-3.0943,-3.0961,-3.0998,-3.1018,-3.1046,-3.1067,-3.1086,-3.1095,-3.1111,-3.1148,-3.1173,-3.1205,-3.1216,-3.1224,-3.126,-3.1257,-3.1256,-3.1248,-3.127,-3.1282,-3.1286,-3.1229,-3.1229,-3.1229,-3.1229,0,0,-3.0933,-3.0981,-3.0987,-3.1004,-3.104,-3.1062,-3.1092,-3.1124,-3.1139,-3.1166,-3.1191,-3.1231,-3.1231,-3.125,-3.1261,-3.128,-3.1306,-3.1277,-3.1278,-3.1281,-3.1347,-3.1346,-3.1351,-3.131,-3.131,-3.1311,-3.1344,0,-3.0961,-3.1013,-3.103,-3.1073,-3.11,-3.1112,-3.1138,-3.1162,-3.1179,-3.1204,-3.1222,-3.125,-3.1249,-3.126,-3.1279,-3.1299,-3.1319,-3.1297,-3.1332,-3.1333,-3.1323,-3.1357,-3.1356,-3.1386,-3.1349,-3.135,-3.135,0,-3.1,-3.1028,-3.1074,-3.1107,-3.1119,-3.1141,-3.1173,-3.1197,-3.1226,-3.1237,-3.1259,-3.1269,-3.1301,-3.1292,-3.1336,-3.132,-3.1336,-3.1348,-3.135,-3.1352,-3.1342,-3.1359,-3.1396,-3.14,-3.1357,-3.1357,-3.1356,0,-3.1009,-3.1058,-3.1092,-3.1106,-3.1146,-3.1162,-3.1179,-3.1208,-3.1226,-3.1255,-3.1267,-3.1298,-3.1315,-3.1339,-3.1358,-3.135,-3.14,-3.1393,-3.141,-3.1409,-3.1418,-3.1417,-3.1456,-3.1431,-3.143,-3.143,-3.143,0,-3.1037,-3.1065,-3.1096,-3.1117,-3.1148,-3.1169,-3.1199,-3.1218,-3.1243,-3.1268,-3.1281,-3.1304,-3.1328,-3.1354,-3.1369,-3.1403,-3.1411,-3.142,-3.1424,-3.1418,-3.1417,-3.1428,-3.1426,-3.1432,-3.1431,-3.1431,-3.1431,0,-3.1051,-3.1074,-3.1111,-3.1147,-3.1157,-3.1178,-3.1209,-3.123,-3.1248,-3.1279,-3.1287,-3.1315,-3.1347,-3.1369,-3.141,-3.142,-3.1457,-3.146,-3.1447,-3.1448,-3.1463,-3.1461,-3.151,-3.1517,-3.1487,-3.1488,-3.1488,0,-3.1067,-3.1089,-3.1127,-3.1145,-3.1162,-3.1191,-3.121,-3.1232,-3.1252,-3.1288,-3.1305,-3.1338,-3.1365,-3.1416,-3.144,-3.1471,-3.1475,-3.149,-3.148,-3.1474,-3.1474,-3.1472,-3.1475,-3.1491,-3.1491,-3.1491,-3.1491,0,-3.1093,-3.1104,-3.1131,-3.1164,-3.1187,-3.1213,-3.124,-3.1254,-3.128,-3.1302,-3.1335,-3.1356,-3.1399,-3.1432,-3.1466,-3.1484,-3.1492,-3.1495,-3.15,-3.1494,-3.1485,-3.149,-3.145,-3.1493,-3.1493,-3.1493,-3.1493,-3.1493,-3.1108,-3.1128,-3.1158,-3.1189,-3.1212,-3.1237,-3.1258,-3.128,-3.1308,-3.1344,-3.1356,-3.139,-3.142,-3.1467,-3.1486,-3.1514,-3.1513,-3.152,-3.1522,-3.1523,-3.1523,-3.1482,-3.152,-3.152,-3.152,-3.152,-3.152,0,-3.1134,-3.1155,-3.1183,-3.122,-3.1245,-3.1252,-3.1282,-3.1302,-3.1332,-3.136,-3.1387,-3.1425,-3.1458,-3.1485,-3.1519,-3.1536,-3.154,-3.1544,-3.1542,-3.1546,-3.1523,-3.1514,-3.154,-3.154,-3.154,-3.154,-3.154,-3.1539,-3.115,-3.1185,-3.1199,-3.1245,-3.1266,-3.13,-3.1316,-3.134,-3.1362,-3.1404,-3.1431,-3.145,-3.1477,-3.1514,-3.1544,-3.1551,-3.1563,-3.1565,-3.1573,-3.155,-3.1548,-3.1546,-3.1538,-3.1567,-3.1568,-3.1594,-3.1594,-3.1595]},{"header":{"parameterUnit":"m.s-1","parameterCategory":1,"la1":30.2991,"la2":30.254,"lo1":-89.0895,"lo2":-89.0444,"dy":0.0017,"dx":0.0017,"nx":28,"ny":28,"refTime":"2025-04-21T21:00:00:Z","depth":0,"parameterNumber":3,"parameterNumberName":"V-component_of_WINDS"},"data":[0,0,0,0,0,0,0,0,0,0,0,0,0,0,0,0,0,0,0,0,0,0,0,0,0,0,0,0,0,0,0,0,0,0,0,0,0,0,0,0,0,0,0,0,0,0,0,0,0,0,0,0,0,0,0,0,0,0,5.7616,5.7617,0,5.7715,5.7716,5.7718,5.7778,5.7778,5.7778,5.7778,5.7873,5.7875,5.7878,0,0,0,0,0,0,0,0,0,0,0,0,0,5.7474,5.7476,5.7616,5.7617,5.7619,5.7715,5.7717,5.7718,5.7778,5.7778,5.7778,5.7779,5.7873,5.7875,5.7878,0,0,0,0,0,0,0,0,0,0,0,0,0,5.755,5.7477,5.7616,5.766,5.7665,5.7715,5.7717,5.7718,5.7777,5.7778,5.7778,5.7779,5.7872,5.7875,5.7878,5.789,0,0,5.7889,5.789,0,0,0,0,0,0,0,0,5.7546,5.7556,5.7652,5.7657,5.7663,5.7735,5.7701,5.7775,5.7777,5.7734,5.7778,5.7779,5.7826,5.7833,5.7851,5.7894,5.7898,5.7889,5.7891,5.7892,5.7893,0,0,0,0,0,0,0,5.7541,5.7552,5.7655,5.7654,5.766,5.7674,5.7685,5.7716,5.7776,5.7738,5.7743,5.7754,5.7829,5.7847,5.7853,5.79,5.7889,5.7892,5.7894,5.7895,5.796,5.796,0,0,0,0,0,0,5.7529,5.7547,5.7652,5.7658,5.7605,5.7676,5.7689,5.7711,5.7776,5.7787,5.7754,5.7757,5.7842,5.785,5.7857,5.7877,5.7892,5.7895,5.7897,5.7961,5.796,5.796,0,0,0,0,0,0,5.7526,5.7538,5.7648,5.7604,5.7619,5.7678,5.7702,5.7713,5.7731,5.7788,5.7799,5.7761,5.7842,5.7852,5.7882,5.7881,5.7897,5.79,5.7961,5.7961,5.796,5.7915,0,0,0,0,0,0,5.7522,5.7536,5.7542,5.7604,5.7621,5.7672,5.7702,5.7714,5.7738,5.7742,5.7798,5.7808,5.7843,5.7877,5.7886,5.7886,5.7903,5.7961,5.7961,5.796,5.7917,5.7913,5.791,0,0,0,0,0,5.7516,5.7523,5.7542,5.7554,5.763,5.7672,5.7682,5.7725,5.7737,5.7743,5.778,5.7806,5.788,5.788,5.789,5.7891,5.7962,5.7961,5.796,5.7918,5.7914,5.791,0,0,0,0,0,0,5.7456,5.7532,5.7554,5.7581,5.762,5.7682,5.7691,5.7718,5.7753,5.7755,5.7805,5.7817,5.7843,5.787,5.7868,5.7907,5.7924,5.7925,5.7888,5.7884,5.7881,5.7874,5.7905,0,0,0,0,0,5.7447,5.7477,5.7541,5.7558,5.7577,5.7631,5.7651,5.7681,5.7723,5.7739,5.7778,5.7816,5.7848,5.7868,5.79,5.7922,5.7935,5.7927,5.7924,5.7921,5.7921,5.7937,5.7935,5.7958,5.7958,5.7958,0,0,5.7426,5.7471,5.7486,5.7548,5.7582,5.7611,5.7644,5.7672,5.7695,5.7742,5.7774,5.7804,5.785,5.7877,5.789,5.79,5.7918,5.792,5.7917,5.7919,5.7936,5.7934,5.7932,5.7958,5.7958,5.7958,0,0,5.7404,5.7441,5.7462,5.7496,5.7549,5.7585,5.759,5.7649,5.7672,5.7705,5.7743,5.7769,5.7822,5.7855,5.7878,5.7872,5.7898,5.7881,5.7862,5.7877,5.7875,5.7874,5.7873,5.7872,5.7881,5.7881,5.7881,0,5.7371,5.7419,5.7468,5.7496,5.7522,5.757,5.7591,5.7622,5.768,5.7697,5.7708,5.7779,5.7813,5.7849,5.7848,5.7865,5.7872,5.7874,5.7872,5.7871,5.787,5.787,5.787,5.7879,5.7879,5.7879,5.788,0,5.7377,5.7409,5.7419,5.7479,5.7506,5.753,5.7582,5.7604,5.7633,5.7667,5.7702,5.7745,5.7788,5.7799,5.7825,5.784,5.7844,5.7863,5.7881,5.7865,5.7866,5.7866,5.7876,5.7877,5.7877,5.7878,0,0,5.7316,5.7407,5.741,5.7439,5.7502,5.7527,5.7554,5.76,5.7618,5.7658,5.7682,5.7728,5.7747,5.7773,5.7804,5.7817,5.7812,5.7835,5.7836,5.783,5.7832,5.7818,5.7817,5.783,5.783,5.783,5.7829,0,5.7304,5.7358,5.7404,5.744,5.7471,5.7519,5.7543,5.7584,5.7618,5.7648,5.7685,5.7718,5.7739,5.7756,5.7771,5.781,5.7813,5.781,5.7852,5.7853,5.784,5.7818,5.7802,5.7798,5.7829,5.7829,5.7829,0,5.7296,5.7339,5.7378,5.7442,5.7457,5.7477,5.7524,5.7553,5.7601,5.7625,5.7657,5.769,5.7721,5.7736,5.7779,5.7776,5.7796,5.7818,5.7819,5.7824,5.784,5.7823,5.7798,5.7797,5.783,5.783,5.783,0,5.7251,5.7317,5.735,5.7373,5.7447,5.7461,5.7492,5.7541,5.7567,5.7607,5.7625,5.7667,5.769,5.7722,5.7766,5.7773,5.7805,5.7824,5.7825,5.7824,5.7829,5.7828,5.7808,5.7841,5.7841,5.7841,5.7841,0,5.7232,5.7255,5.7331,5.7351,5.7378,5.7432,5.7457,5.7492,5.7536,5.7563,5.7606,5.7631,5.7688,5.7719,5.7754,5.7785,5.7794,5.7814,5.7823,5.7811,5.7808,5.7824,5.7826,5.7841,5.7841,5.7841,5.7841,0,5.7185,5.7237,5.7276,5.7345,5.7363,5.738,5.7439,5.746,5.7498,5.7532,5.7543,5.7602,5.7642,5.769,5.7743,5.7767,5.7795,5.7808,5.778,5.7785,5.7785,5.7784,5.7774,5.7776,5.7807,5.7807,5.7806,0,5.717,5.7189,5.7261,5.7285,5.7316,5.7351,5.7379,5.7433,5.746,5.7518,5.7532,5.7576,5.7614,5.7675,5.7721,5.7763,5.7778,5.7772,5.7784,5.7772,5.7779,5.7778,5.7781,5.7768,5.7767,5.7767,5.7766,0,5.7138,5.7164,5.7203,5.7252,5.7285,5.7325,5.7367,5.7383,5.7446,5.7474,5.7517,5.7546,5.7604,5.7647,5.7696,5.7726,5.7757,5.7762,5.7765,5.7752,5.7736,5.7746,5.7771,5.7762,5.7762,5.7763,5.7763,5.7763,5.7107,5.7127,5.7183,5.7226,5.7264,5.7304,5.7328,5.7371,5.7409,5.7462,5.7491,5.7533,5.7583,5.7653,5.7683,5.7716,5.7727,5.773,5.7731,5.7732,5.7729,5.7731,5.7725,5.7725,5.7725,5.7725,5.7726,0,5.7078,5.7117,5.7157,5.7217,5.7251,5.728,5.7329,5.7355,5.7393,5.7438,5.7476,5.7526,5.7569,5.762,5.7667,5.7684,5.7699,5.7694,5.7693,5.77,5.7716,5.7709,5.7681,5.7681,5.7681,5.7681,5.7681,5.7681,5.7067,5.7105,5.7137,5.7194,5.7233,5.7277,5.7303,5.734,5.7377,5.7432,5.7469,5.7504,5.7552,5.7602,5.7643,5.7657,5.7672,5.7663,5.7681,5.7695,5.7699,5.7702,5.7697,5.7666,5.7666,5.7663,5.7663,5.7663]}]]